Weather History for Athens Eleftherios, Greece

Change the Weather History Date:

Monday, February 17, 2014

  Actual Average (LGEL) Record (LGEL)
Temperature  
Mean Temperature 54 °F -  
Max Temperature 66 °F 54 °F 68 °F (2014)
Min Temperature 41 °F 39 °F 26 °F (2008)
Degree Days  
Heating Degree Days 12    
Growing Degree Days 4 (Base 50)    
Moisture  
Dew Point 45 °F    
Average Humidity 72    
Maximum Humidity 93    
Minimum Humidity 46    
Precipitation  
Precipitation 0.00 in - - ()
Sea Level Pressure  
Sea Level Pressure 30.17 in    
Wind  
Wind Speed 4 mph ()    
Max Wind Speed 13 mph    
Max Gust Speed -    
Visibility 6.2 miles    
Events      
Averages and records for this station are not official NWS values.
T = Trace of Precipitation, MM = Missing Value Source: Averaged Metar Reports

Daily Weather History Graph

Daily Weather History Graph

Search for Another Location

Airport:

Trip Planner

Search our weather history database for the weather conditions in past years. The results will help you decide how hot, cold, wet, or windy it might be!

Date:

Astronomy

Feb. 17, 2014 Rise Set
Actual Time 7:12 AM EET 6:04 PM EET
Civil Twilight 6:45 AM EET 6:31 PM EET
Nautical Twilight 6:14 AM EET 7:02 PM EET
Astronomical Twilight 5:44 AM EET 7:33 PM EET
Moon 8:37 PM EET (2/17) 8:05 AM EET (2/17)
Length of Visible Light 11h 46m
Length of Day
10h 52m
Waning Gibbous, 95% of the Moon is Illuminated
Feb 17
Waning Gibbous
Feb 22
Last Quarter
Mar 1
New
Mar 8
First Quarter
Mar 16
Full

Hourly Weather History & Observations

Time (EET) Temp. Windchill Dew Point Humidity Pressure Visibility Wind Dir Wind Speed Gust Speed Precip Events Conditions
12:20 AM 48.2 °F - 42.8 °F 82% 30.18 in - West 3.5 mph - N/A   Clear
12:50 AM 48.2 °F - 41.0 °F 76% 30.18 in - West 3.5 mph - N/A   Clear
1:20 AM 48.2 °F - 44.6 °F 87% 30.18 in - WNW 4.6 mph - N/A   Clear
1:50 AM 48.2 °F - 44.6 °F 87% 30.18 in - West 4.6 mph - N/A   Clear
2:20 AM 48.2 °F - 44.6 °F 87% 30.18 in - West 5.8 mph - N/A   Clear
2:50 AM 48.2 °F - 44.6 °F 87% 30.18 in - WSW 2.3 mph - N/A   Clear
3:20 AM 44.6 °F 43.1 °F 42.8 °F 93% 30.15 in - WNW 3.5 mph - N/A   Clear
3:50 AM 46.4 °F - 44.6 °F 93% 30.15 in - NW 2.3 mph - N/A   Clear
4:20 AM 44.6 °F 41.4 °F 41.0 °F 87% 30.15 in - WSW 5.8 mph - N/A   Clear
4:50 AM 42.8 °F - 41.0 °F 93% 30.15 in - Variable 2.3 mph - N/A   Clear
5:20 AM 48.2 °F - 46.4 °F 93% 30.15 in - NNW 2.3 mph - N/A   Clear
5:50 AM 44.6 °F - 42.8 °F 93% 30.15 in - Calm Calm - N/A   Clear
6:20 AM 41.0 °F - 39.2 °F 93% 30.15 in - Variable 1.2 mph - N/A   Clear
6:50 AM 44.6 °F 43.1 °F 41.0 °F 87% 30.15 in - Variable 3.5 mph - N/A   Clear
7:20 AM 44.6 °F 42.2 °F 41.0 °F 87% 30.15 in - NNE 4.6 mph - N/A   Clear
7:50 AM 50.0 °F - 44.6 °F 82% 30.18 in - WNW 4.6 mph - N/A   Clear
8:20 AM 51.8 °F - 46.4 °F 82% 30.18 in - Variable 2.3 mph - N/A   Clear
8:50 AM 53.6 °F - 48.2 °F 82% 30.18 in - Variable 2.3 mph - N/A   Clear
9:20 AM 55.4 °F - 48.2 °F 77% 30.18 in - South 2.3 mph - N/A   Clear
9:50 AM 59.0 °F - 46.4 °F 63% 30.18 in - Variable 1.2 mph - N/A   Clear
10:20 AM 62.6 °F - 48.2 °F 59% 30.18 in - Variable 1.2 mph - N/A   Clear
10:50 AM 62.6 °F - 46.4 °F 55% 30.18 in - Variable 1.2 mph - N/A   Clear
11:20 AM 64.4 °F - 48.2 °F 56% 30.18 in - Variable 2.3 mph - N/A   Clear
11:50 AM 64.4 °F - 48.2 °F 56% 30.18 in - Variable 2.3 mph - N/A   Clear
12:20 PM 66.2 °F - 46.4 °F 49% 30.18 in - SSW 12.7 mph - N/A   Clear
12:50 PM 66.2 °F - 44.6 °F 46% 30.18 in - South 9.2 mph - N/A   Clear
1:20 PM 66.2 °F - 46.4 °F 49% 30.15 in - South 12.7 mph - N/A   Clear
1:50 PM 66.2 °F - 46.4 °F 49% 30.15 in - South 10.4 mph - N/A   Clear
2:20 PM 66.2 °F - 46.4 °F 49% 30.15 in 6.2 mi SW 11.5 mph - N/A   Partly Cloudy
2:50 PM 66.2 °F - 46.4 °F 49% 30.15 in - SSW 10.4 mph - N/A   Clear
3:20 PM 66.2 °F - 46.4 °F 49% 30.15 in - SSW 9.2 mph - N/A   Clear
3:50 PM 66.2 °F - 46.4 °F 49% 30.15 in - SSW 6.9 mph - N/A   Clear
4:20 PM 66.2 °F - 44.6 °F 46% 30.15 in - South 10.4 mph - N/A   Clear
4:50 PM 66.2 °F - 46.4 °F 49% 30.15 in - SSW 11.5 mph - N/A   Clear
5:20 PM 62.6 °F - 46.4 °F 55% 30.15 in - SSW 12.7 mph - N/A   Clear
5:50 PM 59.0 °F - 46.4 °F 63% 30.15 in - SW 12.7 mph - N/A   Clear
7:50 PM 57.2 °F - 44.6 °F 63% 30.18 in 6.2 mi West 5.8 mph - N/A   Partly Cloudy
8:20 PM 53.6 °F - 44.6 °F 72% 30.21 in 6.2 mi WNW 3.5 mph - N/A   Partly Cloudy
8:50 PM 53.6 °F - 48.2 °F 82% 30.21 in 6.2 mi Variable 1.2 mph - N/A   Partly Cloudy
9:20 PM 53.6 °F - 48.2 °F 82% 30.21 in 6.2 mi Calm Calm - N/A   Partly Cloudy
9:50 PM 51.8 °F - 46.4 °F 82% 30.21 in 6.2 mi Variable 3.5 mph - N/A   Partly Cloudy
10:20 PM 53.6 °F - 46.4 °F 77% 30.21 in 6.2 mi Variable 1.2 mph - N/A   Partly Cloudy
10:50 PM 53.6 °F - 46.4 °F 77% 30.21 in 6.2 mi Variable 2.3 mph - N/A   Partly Cloudy
11:20 PM 53.6 °F - 46.4 °F 77% 30.21 in 6.2 mi Variable 2.3 mph - N/A   Partly Cloudy
11:50 PM 51.8 °F - 44.6 °F 76% 30.21 in 6.2 mi Variable 2.3 mph - N/A   Partly Cloudy